Location: *
(2.5500°S, 65.9667°W)
Time: 07:03:56
(UTC+00:00)

Tiros 1 despin weight - Pass Details

Date: 16 April 2024
Orbit: 578 x 621 km, 48.2° (Epoch: 27 May)

Event Time Altitude Azimuth Distance (km) Brightness Sun altitude
Rises 15:26:31 0° 225° (SW) 2,790 ? 70.8°
Reaches altitude 10° 15:28:48 10° 229° (SW) 1,892 ? 71.2°
Maximum altitude 15:33:04 61° 309° (NW) 664 ? 71.9°
Drops below altitude 10° 15:37:23 10° 29° (NNE) 1,905 ? 72.6°
Sets 15:39:41 0° 33° (NNE) 2,810 ? 73.0°
